Location: Unspecified
(0.0000°N, 0.0000°E)
Time: 06:37:26
(UTC+00:00)

Vanguard 2 Rocket - Pass Details

Date: 12 October 2023
Orbit: 552 x 3312 km, 32.9° (Epoch: 06 December)

Event Time Altitude Azimuth Distance (km) Brightness Sun altitude
Rises 12:52:35 0° 316° (NW) 6,568 11.4 71.9°
Reaches altitude 10° 12:56:53 10° 322° (NW) 5,812 11.2 71.0°
Maximum altitude 13:15:27 51° 33° (NNE) 3,857 10.6 66.6°
Drops below altitude 10° 13:33:07 10° 104° (ESE) 5,623 10.8 62.4°
Sets 13:37:07 0° 109° (ESE) 6,357 11.0 61.5°
